Location: R�serve Fauniques des Laurentides
(47.3100°N, 71.1900°W)
Time: 00:25:31
(UTC-04:00)

Cosmos 1674 - Visible Passes

Search period start: 29 March 2015 00:00
Search period end: 08 April 2015 00:00
Orbit: 507 x 535 km, 82.5° (Epoch: 28 March)

Date Brightness Start Highest point End Pass type
(mag) Time Alt. Az. Time Alt. Az. Time Alt. Az.
29 Mar 4.8 21:06:28 10° NNW 21:09:43 26° W 21:12:56 10° SSW visible
30 Mar 4.6 20:53:02 10° NNW 20:56:26 30° W 20:59:48 10° SSW visible
31 Mar 4.4 20:39:37 10° NNW 20:43:08 34° W 20:46:38 10° SSW visible
01 Apr 4.1 20:26:12 10° NNW 20:29:49 40° W 20:33:26 10° SSW visible
02 Apr 3.9 20:12:47 10° NNW 20:16:29 46° W 20:20:12 10° SSW visible
03 Apr 3.6 19:59:23 10° NNW 20:03:09 54° W 20:06:55 10° S visible
04 Apr 3.3 19:45:59 10° NNW 19:49:48 63° W 19:53:37 10° S visible
